Location: Unspecified
(0.0000°N, 0.0000°E)
Time: 12:14:11
(UTC+00:00)

STARLINK 1031 - Pass Details

Date: 12 December 2019
Orbit: 348 x 351 km, 53.0° (Epoch: 11 December)

Event Time Altitude Azimuth Distance (km) Brightness Sun altitude
Rises 18:42:37 0° 183° (S) 2,147 7.0 -11.2°
Reaches altitude 10° 18:45:38 10° 148° (SSE) 1,302 5.5 -11.9°
Maximum altitude 18:46:46 12° 125° (SE) 1,208 5.1 -12.2°
Enters shadow 18:47:07 12° 117° (ESE) 1,217 5.0 -12.3°
